Flag for Russia Weather past 2 weeks in Cheboksary, Russia

Now
72 °F

Passing clouds.


Feels Like: 77 °F
Forecast: 68 / 89 °F
Wind: 10 mph from South

Location: Kazan'

Current Time: May 29, 2015 at 2:21:31 AM

Latest Report: May 29, 2015 at 1:30 AM


Visibility: N/A

Pressure: 29.89 "Hg

Humidity: 53%

Dew point: 54 °F

Location of CheboksaryLocation

Historic Weather in Cheboksary — Graph

°F

Cheboksary temperature yesterday

Maximum temperature yesterday: 82 °F (at 2:00 PM)
Minimum temperature yesterday: 61 °F (at 12:00 AM)
Average temperature yesterday: 73 °F

Past Weeks' High & Low Weather Summary

 TemperatureHumidityPressure
High86 °F (May 27, 1:00 PM)100% (May 18, 4:00 PM)30.15 "Hg (May 18, 4:00 PM)
Low41 °F (May 18, 2:00 AM)25% (May 27, 3:00 PM)29.33 "Hg (May 18, 1:30 AM)
Average61 °F66%29.82 "Hg
* Reported Midnight between May 13 and May 14 — May 29 12:30 AM, Cheboksary, Weather by CustomWeather, © 2015

Note: Actual official high and low records may vary slightly from our data, if they occured in-between our weather recording intervals... More about our weather records

Advertising

Cheboksary weather history for previous 24 hours

 ConditionsComfort  
Time TempWeatherWind HumidityBarometerVisibility
12:30 AM
Fri, May 29
70 °FSprinkles. Passing clouds.10 mph57%29.89 "HgN/A
12:00 AM68 °FClear.8 mph60%29.89 "Hg10 mi
11:30 PM
Thu, May 28
68 °FClear.8 mph60%29.86 "Hg10 mi
11:00 PM66 °FClear.8 mph64%29.86 "Hg10 mi
10:30 PM66 °FClear.6 mph68%29.89 "Hg10 mi
10:00 PM68 °FClear.8 mph64%29.86 "Hg10 mi
9:30 PM70 °FClear.8 mph60%29.86 "Hg10 mi
9:00 PM72 °FSunny.10 mph57%29.86 "Hg10 mi
8:30 PM73 °FSunny.10 mph53%29.86 "Hg10 mi
8:00 PM75 °FSunny.13 mph50%29.86 "Hg10 mi
7:30 PM77 °FBroken clouds.10 mph51%29.86 "HgN/A
7:00 PM79 °FBroken clouds.10 mph45%29.86 "HgN/A
6:30 PM79 °FPassing clouds.8 mph48%29.86 "HgN/A
6:00 PM81 °FPassing clouds.8 mph45%29.86 "HgN/A
5:30 PM81 °FPassing clouds.10 mph39%29.86 "HgN/A
5:00 PM82 °FPassing clouds.10 mph35%29.86 "HgN/A
4:00 PM82 °FScattered clouds.10 mph35%29.89 "HgN/A
3:30 PM82 °FScattered clouds.8 mph35%29.89 "HgN/A
3:00 PM81 °FScattered clouds.8 mph37%29.92 "HgN/A
2:30 PM81 °FScattered clouds.10 mph37%29.92 "HgN/A
2:00 PM82 °FScattered clouds.15 mph37%29.92 "HgN/A
1:30 PM81 °FScattered clouds.15 mph39%29.95 "HgN/A
1:00 PM81 °FScattered clouds.15 mph39%29.95 "HgN/A
12:30 PM81 °FScattered clouds.15 mph42%29.95 "HgN/A
12:00 PM81 °FScattered clouds.10 mph42%29.95 "HgN/A
11:30 AM75 °FSprinkles. Broken clouds.10 mph54%29.95 "HgN/A
11:00 AM79 °FBroken clouds.10 mph45%29.95 "HgN/A
10:30 AM81 °FBroken clouds.10 mph42%29.95 "HgN/A
10:00 AM81 °FPartly sunny.10 mph39%29.95 "HgN/A
9:30 AM79 °FScattered clouds.13 mph45%29.95 "HgN/A
9:00 AM79 °FSunny.13 mph39%29.95 "Hg10 mi
8:30 AM77 °FSunny.13 mph42%29.95 "Hg10 mi
8:00 AM75 °FSunny.10 mph50%29.95 "Hg10 mi
7:30 AM70 °FSunny.8 mph60%29.95 "Hg10 mi
7:00 AM68 °FSunny.8 mph60%29.95 "Hg10 mi
6:30 AM68 °FSunny.6 mph60%29.95 "Hg10 mi
6:00 AM66 °FSunny.6 mph60%29.95 "Hg10 mi
5:30 AM66 °FSunny.6 mph60%29.95 "Hg10 mi
5:00 AM64 °FSunny.6 mph68%29.95 "Hg10 mi
4:30 AM64 °FSunny.6 mph68%29.95 "Hg10 mi
4:00 AM64 °FClear.8 mph68%29.95 "Hg10 mi
3:30 AM63 °FClear.3 mph73%29.95 "Hg10 mi
3:00 AM64 °FClear.8 mph64%29.98 "Hg10 mi
2:30 AM63 °FClear.8 mph73%29.98 "Hg10 mi
2:00 AM64 °FClear.10 mph64%29.95 "Hg10 mi
Weather by CustomWeather, © 2015

See weather overviewHow to use our weather pages